Flag for Canada Weather past 2 weeks in Kelowna, British Columbia, Canada

Now
32 °F

Overcast.


Feels Like: 32 °F
Forecast: 28 / 40 °F
Wind: No wind

Location: Kelowna Airport

Current Time: Jan 30, 2015 at 3:03:03 AM

Latest Report: Jan 30, 2015 at 2:00 AM


Visibility: 9 mi

Pressure: 30.48 "Hg

Humidity: 93%

Dew point: 30 °F

Location of KelownaLocation

Historic Weather in Kelowna — Graph

°F

Kelowna temperature yesterday

Maximum temperature yesterday: 36 °F (at 2:00 PM)
Minimum temperature yesterday: 34 °F (at 12:00 AM)
Average temperature yesterday: 34 °F

Past Weeks' High & Low Weather Summary

 TemperatureHumidityPressure
High41 °F (Jan 19, 1:00 PM)100% (Jan 15, 11:04 PM)30.57 "Hg (Jan 15, 11:04 PM)
Low16 °F (Jan 20, 7:53 AM)60% (Jan 15, 9:00 AM)29.70 "Hg (Jan 18, 4:00 AM)
Average33 °F90%30.26 "Hg
* Reported Jan 15 2:00 AM — Jan 30 2:00 AM, Kelowna, Weather by CustomWeather, © 2014

Note: Actual official high and low records may vary slightly from our data, if they occured in-between our weather recording intervals... More about our weather records

Advertising

Kelowna weather history for previous 24 hours

 ConditionsComfort  
Time TempWeatherWind HumidityBarometerVisibility
2:00 AM
Jan 30
32 °FOvercast.No wind93%30.48 "Hg9 mi
1:00 AM32 °FOvercast.6 mph93%30.49 "Hg9 mi
12:00 AM34 °FOvercast.3 mph87%30.49 "Hg9 mi
11:00 PM
Jan 29
34 °FOvercast.6 mph87%30.49 "Hg9 mi
10:00 PM34 °FOvercast.2 mph93%30.49 "Hg9 mi
9:00 PM34 °FOvercast.2 mph87%30.49 "Hg9 mi
8:00 PM34 °FOvercast.3 mph87%30.50 "Hg9 mi
7:00 PM34 °FOvercast.2 mph87%30.48 "Hg9 mi
6:00 PM34 °FOvercast.No wind87%30.48 "Hg9 mi
5:00 PM34 °FOvercast.2 mph87%30.49 "Hg9 mi
4:00 PM36 °FOvercast.3 mph81%30.49 "Hg9 mi
3:00 PM36 °FPartly sunny.No wind81%30.49 "Hg9 mi
2:00 PM36 °FOvercast.No wind75%30.49 "Hg9 mi
1:00 PM34 °FOvercast.6 mph87%30.50 "Hg9 mi
12:00 PM34 °FOvercast.7 mph81%30.54 "Hg9 mi
11:00 AM34 °FOvercast.5 mph87%30.52 "Hg9 mi
10:00 AM34 °FOvercast.5 mph87%30.53 "Hg9 mi
9:00 AM34 °FOvercast.6 mph81%30.54 "Hg9 mi
8:00 AM34 °FOvercast.3 mph87%30.53 "Hg9 mi
7:00 AM34 °FOvercast.5 mph87%30.53 "Hg9 mi
6:00 AM34 °FOvercast.6 mph87%30.53 "Hg9 mi
5:00 AM34 °FOvercast.7 mph87%30.53 "Hg9 mi
4:00 AM34 °FOvercast.7 mph93%30.53 "Hg9 mi
3:00 AM34 °FOvercast.9 mph93%30.53 "Hg9 mi
Weather by CustomWeather, © 2014

See weather overviewHow to use our weather pages